Location: Lane
(33.5226°N, 79.8788°W)
Time: 22:02:07
(UTC+00:00)

Tiros 1 - Pass Details

Date: 10 October 2022
Orbit: 629 x 662 km, 48.4° (Epoch: 08 December)

Event Time Altitude Azimuth Distance (km) Brightness Sun altitude
Rises 23:32:10 0° 196° (SSW) 2,955 10.8 -9.2°
Reaches altitude 10° 23:34:54 10° 181° (S) 2,054 9.8 -9.7°
Maximum altitude 23:38:34 22° 130° (SE) 1,414 8.5 -10.5°
Enters shadow 23:41:05 15° 91° (E) 1,753 8.7 -11.0°
